{"data":{"norad_id":59845,"intl_designator":"2024-097L","name":"STARLINK-31903","alt_names":[],"object_type":"PAYLOAD","status":"ACTIVE","operator":null,"country":"US","launch_date":"2024-05-23","launch_site_code":"AFETR","launch_vehicle":null,"mission":null,"orbit_class":"UNKNOWN","rcs_meters":null,"size_class":null,"mass_kg":null,"dimensions":null,"purposes":["comms"],"wikipedia_slug":null,"has_3d_model":false,"image_url":null,"decayed_at":null,"tle_current":{"epoch":"2026-09-21T08:45:49.252032Z","epoch_age_seconds":99739,"freshness":"FRESH","line1":"1 59845U 24097L   26264.36515338 -.00001164  00000+0 -32805-4 0  9992","line2":"2 59845  42.9994 242.2901 0001026 273.8863  86.1871 15.27576479131926","mean_motion":15.27576479,"eccentricity":0.0001026,"inclination_deg":42.9994,"raan_deg":242.2901,"arg_perigee_deg":273.8863,"mean_anomaly_deg":86.1871,"bstar":-3.2805e-5,"rev_number":13192,"period_min":94.266965994571,"perigee_km":482.3556804254,"apogee_km":483.76359797576,"semimajor_km":6861.1966392006,"source":"CELESTRAK","updated_at":"2026-09-22T09:00:49.097145Z"}}}